Year,Month,Day,Hour,Minute,Value (Times are PST for windgust in km/hr)
2006,02,05,00,00,25.70
2006,02,05,00,01,35.40
2006,02,05,00,02,19.30
2006,02,05,00,03,25.70
2006,02,05,00,04,33.80
2006,02,05,00,05,30.60
2006,02,05,00,06,20.90
2006,02,05,00,07,30.60
2006,02,05,00,08,27.40
2006,02,05,00,09,32.20
2006,02,05,00,10,22.50
2006,02,05,00,11,20.90
2006,02,05,00,12,20.90
2006,02,05,00,13,27.40
2006,02,05,00,14,22.50
2006,02,05,00,15,22.50
2006,02,05,00,16,22.50
2006,02,05,00,17,25.70
2006,02,05,00,18,27.40
2006,02,05,00,19,27.40
2006,02,05,00,20,24.20
2006,02,05,00,21,30.60
2006,02,05,00,22,20.90
2006,02,05,00,23,24.20
2006,02,05,00,24,25.70
2006,02,05,00,25,33.80
2006,02,05,00,26,24.20
2006,02,05,00,27,22.50
2006,02,05,00,28,24.20
2006,02,05,00,29,29.00
2006,02,05,00,30,29.00
2006,02,05,00,31,24.20
2006,02,05,00,32,25.70
2006,02,05,00,33,25.70
2006,02,05,00,34,27.40
2006,02,05,00,35,22.50
2006,02,05,00,36,17.70
2006,02,05,00,37,22.50
2006,02,05,00,38,22.50
2006,02,05,00,39,19.30
2006,02,05,00,40,22.50
2006,02,05,00,41,17.70
2006,02,05,00,42,22.50
2006,02,05,00,43,24.20
2006,02,05,00,44,16.10
2006,02,05,00,45,20.90
2006,02,05,00,46,22.50
2006,02,05,00,47,27.40
2006,02,05,00,48,22.50
2006,02,05,00,49,30.60
2006,02,05,00,50,30.60
2006,02,05,00,51,30.60
2006,02,05,00,52,32.20
2006,02,05,00,53,35.40
2006,02,05,00,54,22.50
2006,02,05,00,55,22.50
2006,02,05,00,56,24.20
2006,02,05,00,57,24.20
2006,02,05,00,58,20.90
2006,02,05,00,59,27.40
2006,02,05,01,00,24.20
2006,02,05,01,01,22.50
2006,02,05,01,02,19.30
2006,02,05,01,03,20.90
2006,02,05,01,04,24.20
2006,02,05,01,05,22.50
2006,02,05,01,06,19.30
2006,02,05,01,07,19.30
2006,02,05,01,08,25.70
2006,02,05,01,09,17.70
2006,02,05,01,10,25.70
2006,02,05,01,11,22.50
2006,02,05,01,12,22.50
2006,02,05,01,13,19.30
2006,02,05,01,14,25.70
2006,02,05,01,15,25.70
2006,02,05,01,16,25.70
2006,02,05,01,17,11.30
2006,02,05,01,18,19.30
2006,02,05,01,19,30.60
2006,02,05,01,20,27.40
2006,02,05,01,21,33.80
2006,02,05,01,22,22.50
2006,02,05,01,23,17.70
2006,02,05,01,24,19.30
2006,02,05,01,25,30.60
2006,02,05,01,26,24.20
2006,02,05,01,27,20.90
2006,02,05,01,28,27.40
2006,02,05,01,29,27.40
2006,02,05,01,30,16.10
2006,02,05,01,31,22.50
2006,02,05,01,32,19.30
2006,02,05,01,33,24.20
2006,02,05,01,34,22.50
2006,02,05,01,35,22.50
2006,02,05,01,36,20.90
2006,02,05,01,37,19.30
2006,02,05,01,38,20.90
2006,02,05,01,39,32.20
2006,02,05,01,40,17.70
2006,02,05,01,41,14.50
2006,02,05,01,42,19.30
2006,02,05,01,43,17.70
2006,02,05,01,44,20.90
2006,02,05,01,45,17.70
2006,02,05,01,46,14.50
2006,02,05,01,47,14.50
2006,02,05,01,48,20.90
2006,02,05,01,49,9.60
2006,02,05,01,50,19.30
2006,02,05,01,51,20.90
2006,02,05,01,52,19.30
2006,02,05,01,53,19.30
2006,02,05,01,54,19.30
2006,02,05,01,55,11.30
2006,02,05,01,56,14.50
2006,02,05,01,57,14.50
2006,02,05,01,58,9.60
2006,02,05,01,59,6.40
2006,02,05,02,00,14.50
2006,02,05,02,01,11.30
2006,02,05,02,02,14.50
2006,02,05,02,03,9.60
2006,02,05,02,04,14.50
2006,02,05,02,05,6.40
2006,02,05,02,06,11.30
2006,02,05,02,07,12.90
2006,02,05,02,08,8.10
2006,02,05,02,09,11.30
2006,02,05,02,10,17.70
2006,02,05,02,11,9.60
2006,02,05,02,12,16.10
2006,02,05,02,13,19.30
2006,02,05,02,14,16.10
2006,02,05,02,15,9.60
2006,02,05,02,16,22.50
2006,02,05,02,17,20.90
2006,02,05,02,18,11.30
2006,02,05,02,19,8.10
2006,02,05,02,20,8.10
2006,02,05,02,21,19.30
2006,02,05,02,22,16.10
2006,02,05,02,23,22.50
2006,02,05,02,24,22.50
2006,02,05,02,25,25.70
2006,02,05,02,26,19.30
2006,02,05,02,27,14.50
2006,02,05,02,28,11.30
2006,02,05,02,29,11.30
2006,02,05,02,30,14.50
2006,02,05,02,31,16.10
2006,02,05,02,32,17.70
2006,02,05,02,33,17.70
2006,02,05,02,34,19.30
2006,02,05,02,35,14.50
2006,02,05,02,36,27.40
2006,02,05,02,37,17.70
2006,02,05,02,38,20.90
2006,02,05,02,39,20.90
2006,02,05,02,40,17.70
2006,02,05,02,41,17.70
2006,02,05,02,42,17.70
2006,02,05,02,43,16.10
2006,02,05,02,44,16.10
2006,02,05,02,45,8.10
2006,02,05,02,46,14.50
2006,02,05,02,47,6.40
2006,02,05,02,48,4.80
2006,02,05,02,49,6.40
2006,02,05,02,50,14.50
2006,02,05,02,51,17.70
2006,02,05,02,52,16.10
2006,02,05,02,53,17.70
2006,02,05,02,54,14.50
2006,02,05,02,55,14.50
2006,02,05,02,56,9.60
2006,02,05,02,57,6.40
2006,02,05,02,58,8.10
2006,02,05,02,59,11.30
2006,02,05,03,00,8.10
2006,02,05,03,01,6.40
2006,02,05,03,02,6.40
2006,02,05,03,03,6.40
2006,02,05,03,04,6.40
2006,02,05,03,05,3.20
2006,02,05,03,06,3.20
2006,02,05,03,07,4.80
2006,02,05,03,08,3.20
2006,02,05,03,09,6.40
2006,02,05,03,10,6.40
2006,02,05,03,11,4.80
2006,02,05,03,12,9.60
2006,02,05,03,13,3.20
2006,02,05,03,14,3.20
2006,02,05,03,15,3.20
2006,02,05,03,16,0.00
2006,02,05,03,17,0.00
2006,02,05,03,18,1.60
2006,02,05,03,19,3.20
2006,02,05,03,20,1.60
2006,02,05,03,21,4.80
2006,02,05,03,22,0.00
2006,02,05,03,23,3.20
2006,02,05,03,24,3.20
2006,02,05,03,25,3.20
2006,02,05,03,26,3.20
2006,02,05,03,27,1.60
2006,02,05,03,28,3.20
2006,02,05,03,29,4.80
2006,02,05,03,30,6.40
2006,02,05,03,31,4.80
2006,02,05,03,32,3.20
2006,02,05,03,33,4.80
2006,02,05,03,34,4.80
2006,02,05,03,35,6.40
2006,02,05,03,36,11.30
2006,02,05,03,37,4.80
2006,02,05,03,38,6.40
2006,02,05,03,39,4.80
2006,02,05,03,40,9.60
2006,02,05,03,41,8.10
2006,02,05,03,42,6.40
2006,02,05,03,43,8.10
2006,02,05,03,44,11.30
2006,02,05,03,45,9.60
2006,02,05,03,46,14.50
2006,02,05,03,47,9.60
2006,02,05,03,48,14.50
2006,02,05,03,49,14.50
2006,02,05,03,50,19.30
2006,02,05,03,51,16.10
2006,02,05,03,52,16.10
2006,02,05,03,53,16.10
2006,02,05,03,54,22.50
2006,02,05,03,55,14.50
2006,02,05,03,56,12.90
2006,02,05,03,57,20.90
2006,02,05,03,58,19.30
2006,02,05,03,59,12.90
2006,02,05,04,00,27.40
2006,02,05,04,01,20.90
2006,02,05,04,02,20.90
2006,02,05,04,03,19.30
2006,02,05,04,04,11.30
2006,02,05,04,05,11.30
2006,02,05,04,06,14.50
2006,02,05,04,07,9.60
2006,02,05,04,08,14.50
2006,02,05,04,09,16.10
2006,02,05,04,10,17.70
2006,02,05,04,11,11.30
2006,02,05,04,12,16.10
2006,02,05,04,13,14.50
2006,02,05,04,14,16.10
2006,02,05,04,15,14.50
2006,02,05,04,16,12.90
2006,02,05,04,17,17.70
2006,02,05,04,18,17.70
2006,02,05,04,19,16.10
2006,02,05,04,20,17.70
2006,02,05,04,21,19.30
2006,02,05,04,22,19.30
2006,02,05,04,23,6.40
2006,02,05,04,24,11.30
2006,02,05,04,25,14.50
2006,02,05,04,26,14.50
2006,02,05,04,27,11.30
2006,02,05,04,28,11.30
2006,02,05,04,29,9.60
2006,02,05,04,30,11.30
2006,02,05,04,31,11.30
2006,02,05,04,32,11.30
2006,02,05,04,33,9.60
2006,02,05,04,34,8.10
2006,02,05,04,35,11.30
2006,02,05,04,36,11.30
2006,02,05,04,37,6.40
2006,02,05,04,38,4.80
2006,02,05,04,39,9.60
2006,02,05,04,40,11.30
2006,02,05,04,41,11.30
2006,02,05,04,42,14.50
2006,02,05,04,43,16.10
2006,02,05,04,44,9.60
2006,02,05,04,45,11.30
2006,02,05,04,46,14.50
2006,02,05,04,47,14.50
2006,02,05,04,48,17.70
2006,02,05,04,49,25.70
2006,02,05,04,50,19.30
2006,02,05,04,51,16.10
2006,02,05,04,52,17.70
2006,02,05,04,53,16.10
2006,02,05,04,54,9.60
2006,02,05,04,55,11.30
2006,02,05,04,56,9.60
2006,02,05,04,57,11.30
2006,02,05,04,58,8.10
2006,02,05,04,59,9.60
2006,02,05,05,00,11.30
2006,02,05,05,01,8.10
2006,02,05,05,02,6.40
2006,02,05,05,03,8.10
2006,02,05,05,04,12.90
2006,02,05,05,05,16.10
2006,02,05,05,06,11.30
2006,02,05,05,07,12.90
2006,02,05,05,08,9.60
2006,02,05,05,09,11.30
2006,02,05,05,10,16.10
2006,02,05,05,11,11.30
2006,02,05,05,12,8.10
2006,02,05,05,13,14.50
2006,02,05,05,14,11.30
2006,02,05,05,15,9.60
2006,02,05,05,16,9.60
2006,02,05,05,17,14.50
2006,02,05,05,18,6.40
2006,02,05,05,19,11.30
2006,02,05,05,20,16.10
2006,02,05,05,21,6.40
2006,02,05,05,22,6.40
2006,02,05,05,23,4.80
2006,02,05,05,24,9.60
2006,02,05,05,25,9.60
2006,02,05,05,26,8.10
2006,02,05,05,27,12.90
2006,02,05,05,28,8.10
2006,02,05,05,29,8.10
2006,02,05,05,30,4.80
2006,02,05,05,31,11.30
2006,02,05,05,32,9.60
2006,02,05,05,33,9.60
2006,02,05,05,34,16.10
2006,02,05,05,35,14.50
2006,02,05,05,36,16.10
2006,02,05,05,37,17.70
2006,02,05,05,38,16.10
2006,02,05,05,39,11.30
2006,02,05,05,40,19.30
2006,02,05,05,41,12.90
2006,02,05,05,42,9.60
2006,02,05,05,43,14.50
2006,02,05,05,44,14.50
2006,02,05,05,45,14.50
2006,02,05,05,46,12.90
2006,02,05,05,47,12.90
2006,02,05,05,48,19.30
2006,02,05,05,49,14.50
2006,02,05,05,50,12.90
2006,02,05,05,51,17.70
2006,02,05,05,52,17.70
2006,02,05,05,53,11.30
2006,02,05,05,54,14.50
2006,02,05,05,55,9.60
2006,02,05,05,56,14.50
2006,02,05,05,57,8.10
2006,02,05,05,58,8.10
2006,02,05,05,59,9.60
2006,02,05,06,00,9.60
2006,02,05,06,01,16.10
2006,02,05,06,02,17.70
2006,02,05,06,03,8.10
2006,02,05,06,04,11.30
2006,02,05,06,05,9.60
2006,02,05,06,06,9.60
2006,02,05,06,07,14.50
2006,02,05,06,08,8.10
2006,02,05,06,09,14.50
2006,02,05,06,10,16.10
2006,02,05,06,11,6.40
2006,02,05,06,12,14.50
2006,02,05,06,13,16.10
2006,02,05,06,14,19.30
2006,02,05,06,15,19.30
2006,02,05,06,16,22.50
2006,02,05,06,17,9.60
2006,02,05,06,18,16.10
2006,02,05,06,19,19.30
2006,02,05,06,20,19.30
2006,02,05,06,21,12.90
2006,02,05,06,22,8.10
2006,02,05,06,23,11.30
2006,02,05,06,24,8.10
2006,02,05,06,25,9.60
2006,02,05,06,26,11.30
2006,02,05,06,27,8.10
2006,02,05,06,28,8.10
2006,02,05,06,29,4.80
2006,02,05,06,30,4.80
2006,02,05,06,31,8.10
2006,02,05,06,32,4.80
2006,02,05,06,33,3.20
2006,02,05,06,34,1.60
2006,02,05,06,35,3.20
2006,02,05,06,36,4.80
2006,02,05,06,37,6.40
2006,02,05,06,38,6.40
2006,02,05,06,39,6.40
2006,02,05,06,40,6.40
2006,02,05,06,41,3.20
2006,02,05,06,42,4.80
2006,02,05,06,43,4.80
2006,02,05,06,44,3.20
2006,02,05,06,45,3.20
2006,02,05,06,46,1.60
2006,02,05,06,47,1.60
2006,02,05,06,48,1.60
2006,02,05,06,49,3.20
2006,02,05,06,50,1.60
2006,02,05,06,51,6.40
2006,02,05,06,52,6.40
2006,02,05,06,53,6.40
2006,02,05,06,54,4.80
2006,02,05,06,55,4.80
2006,02,05,06,56,6.40
2006,02,05,06,57,4.80
2006,02,05,06,58,4.80
2006,02,05,06,59,4.80
2006,02,05,07,00,8.10
2006,02,05,07,01,8.10
2006,02,05,07,02,8.10
2006,02,05,07,03,6.40
2006,02,05,07,04,8.10
2006,02,05,07,05,6.40
2006,02,05,07,06,9.60
2006,02,05,07,07,8.10
2006,02,05,07,08,8.10
2006,02,05,07,09,6.40
2006,02,05,07,10,6.40
2006,02,05,07,11,8.10
2006,02,05,07,12,11.30
2006,02,05,07,13,14.50
2006,02,05,07,14,9.60
2006,02,05,07,15,8.10
2006,02,05,07,16,9.60
2006,02,05,07,17,8.10
2006,02,05,07,18,9.60
2006,02,05,07,19,6.40
2006,02,05,07,20,4.80
2006,02,05,07,21,6.40
2006,02,05,07,22,8.10
2006,02,05,07,23,9.60
2006,02,05,07,24,9.60
2006,02,05,07,25,6.40
2006,02,05,07,26,9.60
2006,02,05,07,27,6.40
2006,02,05,07,28,6.40
2006,02,05,07,29,6.40
2006,02,05,07,30,9.60
2006,02,05,07,31,11.30
2006,02,05,07,32,9.60
2006,02,05,07,33,3.20
2006,02,05,07,34,3.20
2006,02,05,07,35,3.20
2006,02,05,07,36,8.10
2006,02,05,07,37,4.80
2006,02,05,07,38,4.80
2006,02,05,07,39,6.40
2006,02,05,07,40,3.20
2006,02,05,07,41,4.80
2006,02,05,07,42,8.10
2006,02,05,07,43,4.80
2006,02,05,07,44,3.20
2006,02,05,07,45,11.30
2006,02,05,07,46,6.40
2006,02,05,07,47,6.40
2006,02,05,07,48,11.30
2006,02,05,07,49,6.40
2006,02,05,07,50,14.50
2006,02,05,07,51,9.60
2006,02,05,07,52,8.10
2006,02,05,07,53,11.30
2006,02,05,07,54,9.60
2006,02,05,07,55,9.60
2006,02,05,07,56,11.30
2006,02,05,07,57,6.40
2006,02,05,07,58,8.10
2006,02,05,07,59,9.60
2006,02,05,08,00,6.40
2006,02,05,08,01,9.60
2006,02,05,08,02,4.80
2006,02,05,08,03,8.10
2006,02,05,08,04,8.10
2006,02,05,08,05,6.40
2006,02,05,08,06,4.80
2006,02,05,08,07,6.40
2006,02,05,08,08,8.10
2006,02,05,08,09,4.80
2006,02,05,08,10,6.40
2006,02,05,08,11,9.60
2006,02,05,08,12,9.60
2006,02,05,08,13,8.10
2006,02,05,08,14,11.30
2006,02,05,08,15,8.10
2006,02,05,08,16,11.30
2006,02,05,08,17,8.10
2006,02,05,08,18,6.40
2006,02,05,08,19,6.40
2006,02,05,08,20,6.40
2006,02,05,08,21,6.40
2006,02,05,08,22,6.40
2006,02,05,08,23,4.80
2006,02,05,08,24,6.40
2006,02,05,08,25,1.60
2006,02,05,08,26,4.80
2006,02,05,08,27,3.20
2006,02,05,08,28,3.20
2006,02,05,08,29,6.40
2006,02,05,08,30,4.80
2006,02,05,08,31,3.20
2006,02,05,08,32,3.20
2006,02,05,08,33,4.80
2006,02,05,08,34,4.80
2006,02,05,08,35,3.20
2006,02,05,08,36,8.10
2006,02,05,08,37,4.80
2006,02,05,08,38,3.20
2006,02,05,08,39,3.20
2006,02,05,08,40,3.20
2006,02,05,08,41,1.60
2006,02,05,08,42,6.40
2006,02,05,08,43,6.40
2006,02,05,08,44,8.10
2006,02,05,08,45,6.40
2006,02,05,08,46,4.80
2006,02,05,08,47,4.80
2006,02,05,08,48,8.10
2006,02,05,08,49,8.10
2006,02,05,08,50,6.40
2006,02,05,08,51,6.40
2006,02,05,08,52,4.80
2006,02,05,08,53,4.80
2006,02,05,08,54,8.10
2006,02,05,08,55,6.40
2006,02,05,08,56,3.20
2006,02,05,08,57,4.80
2006,02,05,08,58,4.80
2006,02,05,08,59,3.20
2006,02,05,09,00,4.80
2006,02,05,09,01,6.40
2006,02,05,09,02,6.40
2006,02,05,09,03,6.40
2006,02,05,09,04,9.60
2006,02,05,09,05,8.10
2006,02,05,09,06,4.80
2006,02,05,09,07,8.10
2006,02,05,09,08,6.40
2006,02,05,09,09,8.10
2006,02,05,09,10,8.10
2006,02,05,09,11,8.10
2006,02,05,09,12,6.40
2006,02,05,09,13,6.40
2006,02,05,09,14,3.20
2006,02,05,09,15,8.10
2006,02,05,09,16,4.80
2006,02,05,09,17,4.80
2006,02,05,09,18,6.40
2006,02,05,09,19,4.80
2006,02,05,09,20,4.80
2006,02,05,09,21,4.80
2006,02,05,09,22,3.20
2006,02,05,09,23,3.20
2006,02,05,09,24,3.20
2006,02,05,09,25,0.00
2006,02,05,09,26,1.60
2006,02,05,09,27,1.60
2006,02,05,09,28,3.20
2006,02,05,09,29,1.60
2006,02,05,09,30,1.60
2006,02,05,09,31,3.20
2006,02,05,09,32,3.20
2006,02,05,09,33,1.60
2006,02,05,09,34,1.60
2006,02,05,09,35,1.60
2006,02,05,09,36,3.20
2006,02,05,09,37,4.80
2006,02,05,09,38,1.60
2006,02,05,09,39,3.20
2006,02,05,09,40,3.20
2006,02,05,09,41,3.20
2006,02,05,09,42,3.20
2006,02,05,09,43,3.20
2006,02,05,09,44,3.20
2006,02,05,09,45,6.40
2006,02,05,09,46,6.40
2006,02,05,09,47,3.20
2006,02,05,09,48,3.20
2006,02,05,09,49,1.60
2006,02,05,09,50,3.20
2006,02,05,09,51,4.80
2006,02,05,09,52,3.20
2006,02,05,09,53,3.20
2006,02,05,09,54,1.60
2006,02,05,09,55,4.80
2006,02,05,09,56,4.80
2006,02,05,09,57,4.80
2006,02,05,09,58,3.20
2006,02,05,09,59,3.20
2006,02,05,10,00,3.20
2006,02,05,10,01,4.80
2006,02,05,10,02,3.20
2006,02,05,10,03,3.20
2006,02,05,10,04,1.60
2006,02,05,10,05,1.60
2006,02,05,10,06,1.60
2006,02,05,10,07,3.20
2006,02,05,10,08,3.20
2006,02,05,10,09,3.20
2006,02,05,10,10,3.20
2006,02,05,10,11,1.60
2006,02,05,10,12,3.20
2006,02,05,10,13,1.60
2006,02,05,10,14,1.60
2006,02,05,10,15,1.60
2006,02,05,10,16,3.20
2006,02,05,10,17,1.60
2006,02,05,10,18,1.60
2006,02,05,10,19,3.20
2006,02,05,10,20,0.00
2006,02,05,10,21,0.00
2006,02,05,10,22,1.60
2006,02,05,10,23,3.20
2006,02,05,10,24,3.20
2006,02,05,10,25,3.20
2006,02,05,10,26,3.20
2006,02,05,10,27,3.20
2006,02,05,10,28,3.20
2006,02,05,10,29,3.20
2006,02,05,10,30,3.20
2006,02,05,10,31,3.20
2006,02,05,10,32,1.60
2006,02,05,10,33,3.20
2006,02,05,10,34,4.80
2006,02,05,10,35,3.20
2006,02,05,10,36,3.20
2006,02,05,10,37,3.20
2006,02,05,10,38,3.20
2006,02,05,10,39,1.60
2006,02,05,10,40,3.20
2006,02,05,10,41,1.60
2006,02,05,10,42,1.60
2006,02,05,10,43,1.60
2006,02,05,10,44,1.60
2006,02,05,10,45,3.20
2006,02,05,10,46,3.20
2006,02,05,10,47,4.80
2006,02,05,10,48,4.80
2006,02,05,10,49,4.80
2006,02,05,10,50,1.60
2006,02,05,10,51,1.60
2006,02,05,10,52,4.80
2006,02,05,10,53,4.80
2006,02,05,10,54,3.20
2006,02,05,10,55,3.20
2006,02,05,10,56,3.20
2006,02,05,10,57,3.20
2006,02,05,10,58,3.20
2006,02,05,10,59,1.60
2006,02,05,11,00,1.60
2006,02,05,11,01,1.60
2006,02,05,11,02,3.20
2006,02,05,11,03,1.60
2006,02,05,11,04,1.60
2006,02,05,11,05,3.20
2006,02,05,11,06,0.00
2006,02,05,11,07,0.00
2006,02,05,11,08,1.60
2006,02,05,11,09,0.00
2006,02,05,11,10,3.20
2006,02,05,11,11,1.60
2006,02,05,11,12,3.20
2006,02,05,11,13,4.80
2006,02,05,11,14,4.80
2006,02,05,11,15,3.20
2006,02,05,11,16,3.20
2006,02,05,11,17,3.20
2006,02,05,11,18,3.20
2006,02,05,11,19,4.80
2006,02,05,11,20,6.40
2006,02,05,11,21,3.20
2006,02,05,11,22,1.60
2006,02,05,11,23,4.80
2006,02,05,11,24,4.80
2006,02,05,11,25,1.60
2006,02,05,11,26,3.20
2006,02,05,11,27,3.20
2006,02,05,11,28,6.40
2006,02,05,11,29,6.40
2006,02,05,11,30,3.20
2006,02,05,11,31,3.20
2006,02,05,11,32,3.20
2006,02,05,11,33,4.80
2006,02,05,11,34,4.80
2006,02,05,11,35,4.80
2006,02,05,11,36,3.20
2006,02,05,11,37,3.20
2006,02,05,11,38,4.80
2006,02,05,11,39,4.80
2006,02,05,11,40,4.80
2006,02,05,11,41,1.60
2006,02,05,11,42,1.60
2006,02,05,11,43,3.20
2006,02,05,11,44,1.60
2006,02,05,11,45,4.80
2006,02,05,11,46,1.60
2006,02,05,11,47,0.00
2006,02,05,11,48,0.00
2006,02,05,11,49,0.00
2006,02,05,11,50,1.60
2006,02,05,11,51,1.60
2006,02,05,11,52,1.60
2006,02,05,11,53,1.60
2006,02,05,11,54,0.00
2006,02,05,11,55,1.60
2006,02,05,11,56,1.60
2006,02,05,11,57,3.20
2006,02,05,11,58,3.20
2006,02,05,11,59,3.20
2006,02,05,12,00,1.60
2006,02,05,12,01,1.60
2006,02,05,12,02,1.60
2006,02,05,12,03,3.20
2006,02,05,12,04,1.60
2006,02,05,12,05,1.60
2006,02,05,12,06,1.60
2006,02,05,12,07,0.00
2006,02,05,12,08,1.60
2006,02,05,12,09,1.60
2006,02,05,12,10,0.00
2006,02,05,12,11,1.60
2006,02,05,12,12,1.60
2006,02,05,12,13,0.00
2006,02,05,12,14,1.60
2006,02,05,12,15,1.60
2006,02,05,12,16,3.20
2006,02,05,12,17,3.20
2006,02,05,12,18,3.20
2006,02,05,12,19,3.20
2006,02,05,12,20,0.00
2006,02,05,12,21,1.60
2006,02,05,12,22,0.00
2006,02,05,12,23,0.00
2006,02,05,12,24,0.00
2006,02,05,12,25,0.00
2006,02,05,12,26,4.80
2006,02,05,12,27,3.20
2006,02,05,12,28,1.60
2006,02,05,12,29,1.60
2006,02,05,12,30,1.60
2006,02,05,12,31,0.00
2006,02,05,12,32,0.00
2006,02,05,12,33,1.60
2006,02,05,12,34,1.60
2006,02,05,12,35,1.60
2006,02,05,12,36,1.60
2006,02,05,12,37,1.60
2006,02,05,12,38,1.60
2006,02,05,12,39,1.60
2006,02,05,12,40,1.60
2006,02,05,12,41,3.20
2006,02,05,12,42,1.60
2006,02,05,12,43,1.60
2006,02,05,12,44,3.20
2006,02,05,12,45,3.20
2006,02,05,12,46,1.60
2006,02,05,12,47,1.60
2006,02,05,12,48,4.80
2006,02,05,12,49,4.80
2006,02,05,12,50,6.40
2006,02,05,12,51,6.40
2006,02,05,12,52,4.80
2006,02,05,12,53,4.80
2006,02,05,12,54,3.20
2006,02,05,12,55,1.60
2006,02,05,12,56,4.80
2006,02,05,12,57,1.60
2006,02,05,12,58,4.80
2006,02,05,12,59,3.20
2006,02,05,13,00,4.80
2006,02,05,13,01,3.20
2006,02,05,13,02,1.60
2006,02,05,13,03,0.00
2006,02,05,13,04,1.60
2006,02,05,13,05,0.00
2006,02,05,13,06,1.60
2006,02,05,13,07,3.20
2006,02,05,13,08,0.00
2006,02,05,13,09,1.60
2006,02,05,13,10,3.20
2006,02,05,13,11,3.20
2006,02,05,13,12,3.20
2006,02,05,13,13,3.20
2006,02,05,13,14,4.80
2006,02,05,13,15,3.20
2006,02,05,13,16,3.20
2006,02,05,13,17,1.60
2006,02,05,13,18,3.20
2006,02,05,13,19,0.00
2006,02,05,13,20,3.20
2006,02,05,13,21,3.20
2006,02,05,13,22,1.60
2006,02,05,13,23,1.60
2006,02,05,13,24,1.60
2006,02,05,13,25,3.20
2006,02,05,13,26,0.00
2006,02,05,13,27,0.00
2006,02,05,13,28,1.60
2006,02,05,13,29,1.60
2006,02,05,13,30,1.60
2006,02,05,13,31,3.20
2006,02,05,13,32,0.00
2006,02,05,13,33,1.60
2006,02,05,13,34,0.00
2006,02,05,13,35,0.00
2006,02,05,13,36,3.20
2006,02,05,13,37,1.60
2006,02,05,13,38,3.20
2006,02,05,13,39,1.60
2006,02,05,13,40,0.00
2006,02,05,13,41,1.60
2006,02,05,13,42,1.60
2006,02,05,13,43,1.60
2006,02,05,13,44,0.00
2006,02,05,13,45,1.60
2006,02,05,13,46,1.60
2006,02,05,13,47,1.60
2006,02,05,13,48,0.00
2006,02,05,13,49,1.60
2006,02,05,13,50,4.80
2006,02,05,13,51,3.20
2006,02,05,13,52,3.20
2006,02,05,13,53,3.20
2006,02,05,13,54,0.00
2006,02,05,13,55,6.40
2006,02,05,13,56,4.80
2006,02,05,13,57,6.40
2006,02,05,13,58,6.40
2006,02,05,13,59,3.20
2006,02,05,14,00,1.60
2006,02,05,14,01,3.20
2006,02,05,14,02,3.20
2006,02,05,14,03,1.60
2006,02,05,14,04,1.60
2006,02,05,14,05,4.80
2006,02,05,14,06,6.40
2006,02,05,14,07,6.40
2006,02,05,14,08,3.20
2006,02,05,14,09,8.10
2006,02,05,14,10,6.40
2006,02,05,14,11,1.60
2006,02,05,14,12,4.80
2006,02,05,14,13,4.80
2006,02,05,14,14,3.20
2006,02,05,14,15,1.60
2006,02,05,14,16,3.20
2006,02,05,14,17,1.60
2006,02,05,14,18,0.00
2006,02,05,14,19,3.20
2006,02,05,14,20,3.20
2006,02,05,14,21,1.60
2006,02,05,14,22,4.80
2006,02,05,14,23,3.20
2006,02,05,14,24,3.20
2006,02,05,14,25,6.40
2006,02,05,14,26,3.20
2006,02,05,14,27,3.20
2006,02,05,14,28,1.60
2006,02,05,14,29,4.80
2006,02,05,14,30,3.20
2006,02,05,14,31,4.80
2006,02,05,14,32,3.20
2006,02,05,14,33,1.60
2006,02,05,14,34,3.20
2006,02,05,14,35,3.20
2006,02,05,14,36,1.60
2006,02,05,14,37,4.80
2006,02,05,14,38,1.60
2006,02,05,14,39,1.60
2006,02,05,14,40,3.20
2006,02,05,14,41,1.60
2006,02,05,14,42,4.80
2006,02,05,14,43,3.20
2006,02,05,14,44,4.80
2006,02,05,14,45,6.40
2006,02,05,14,46,9.60
2006,02,05,14,47,9.60
2006,02,05,14,48,9.60
2006,02,05,14,49,4.80
2006,02,05,14,50,1.60
2006,02,05,14,51,3.20
2006,02,05,14,52,3.20
2006,02,05,14,53,6.40
2006,02,05,14,54,6.40
2006,02,05,14,55,8.10
2006,02,05,14,56,8.10
2006,02,05,14,57,8.10
2006,02,05,14,58,3.20
2006,02,05,14,59,3.20
2006,02,05,15,00,3.20
2006,02,05,15,01,6.40
2006,02,05,15,02,3.20
2006,02,05,15,03,6.40
2006,02,05,15,04,8.10
2006,02,05,15,05,6.40
2006,02,05,15,06,4.80
2006,02,05,15,07,1.60
2006,02,05,15,08,3.20
2006,02,05,15,09,3.20
2006,02,05,15,10,3.20
2006,02,05,15,11,4.80
2006,02,05,15,12,4.80
2006,02,05,15,13,3.20
2006,02,05,15,14,1.60
2006,02,05,15,15,1.60
2006,02,05,15,16,1.60
2006,02,05,15,17,1.60
2006,02,05,15,18,1.60
2006,02,05,15,19,3.20
2006,02,05,15,20,4.80
2006,02,05,15,21,4.80
2006,02,05,15,22,1.60
2006,02,05,15,23,3.20
2006,02,05,15,24,3.20
2006,02,05,15,25,3.20
2006,02,05,15,26,3.20
2006,02,05,15,27,1.60
2006,02,05,15,28,0.00
2006,02,05,15,29,3.20
2006,02,05,15,30,3.20
2006,02,05,15,31,3.20
2006,02,05,15,32,3.20
2006,02,05,15,33,3.20
2006,02,05,15,34,3.20
2006,02,05,15,35,3.20
2006,02,05,15,36,3.20
2006,02,05,15,37,6.40
2006,02,05,15,38,6.40
2006,02,05,15,39,4.80
2006,02,05,15,40,3.20
2006,02,05,15,41,3.20
2006,02,05,15,42,3.20
2006,02,05,15,43,3.20
2006,02,05,15,44,1.60
2006,02,05,15,45,8.10
2006,02,05,15,46,3.20
2006,02,05,15,47,3.20
2006,02,05,15,48,4.80
2006,02,05,15,49,1.60
2006,02,05,15,50,3.20
2006,02,05,15,51,3.20
2006,02,05,15,52,3.20
2006,02,05,15,53,1.60
2006,02,05,15,54,6.40
2006,02,05,15,55,3.20
2006,02,05,15,56,3.20
2006,02,05,15,57,4.80
2006,02,05,15,58,6.40
2006,02,05,15,59,4.80
2006,02,05,16,00,3.20
2006,02,05,16,01,4.80
2006,02,05,16,02,3.20
2006,02,05,16,03,6.40
2006,02,05,16,04,6.40
2006,02,05,16,05,1.60
2006,02,05,16,06,9.60
2006,02,05,16,07,6.40
2006,02,05,16,08,4.80
2006,02,05,16,09,6.40
2006,02,05,16,10,4.80
2006,02,05,16,11,4.80
2006,02,05,16,12,16.10
2006,02,05,16,13,4.80
2006,02,05,16,14,6.40
2006,02,05,16,15,4.80
2006,02,05,16,16,6.40
2006,02,05,16,17,3.20
2006,02,05,16,18,3.20
2006,02,05,16,19,4.80
2006,02,05,16,20,8.10
2006,02,05,16,21,9.60
2006,02,05,16,22,4.80
2006,02,05,16,23,8.10
2006,02,05,16,24,6.40
2006,02,05,16,25,4.80
2006,02,05,16,26,4.80
2006,02,05,16,27,4.80
2006,02,05,16,28,4.80
2006,02,05,16,29,6.40
2006,02,05,16,30,14.50
2006,02,05,16,31,8.10
2006,02,05,16,32,6.40
2006,02,05,16,33,6.40
2006,02,05,16,34,6.40
2006,02,05,16,35,9.60
2006,02,05,16,36,11.30
2006,02,05,16,37,9.60
2006,02,05,16,38,8.10
2006,02,05,16,39,1.60
2006,02,05,16,40,4.80
2006,02,05,16,41,4.80
2006,02,05,16,42,3.20
2006,02,05,16,43,4.80
2006,02,05,16,44,4.80
2006,02,05,16,45,4.80
2006,02,05,16,46,4.80
2006,02,05,16,47,4.80
2006,02,05,16,48,6.40
2006,02,05,16,49,4.80
2006,02,05,16,50,6.40
2006,02,05,16,51,6.40
2006,02,05,16,52,8.10
2006,02,05,16,53,8.10
2006,02,05,16,54,4.80
2006,02,05,16,55,6.40
2006,02,05,16,56,4.80
2006,02,05,16,57,3.20
2006,02,05,16,58,8.10
2006,02,05,16,59,8.10
2006,02,05,17,00,8.10
2006,02,05,17,01,6.40
2006,02,05,17,02,9.60
2006,02,05,17,03,9.60
2006,02,05,17,04,9.60
2006,02,05,17,05,8.10
2006,02,05,17,06,9.60
2006,02,05,17,07,8.10
2006,02,05,17,08,11.30
2006,02,05,17,09,6.40
2006,02,05,17,10,8.10
2006,02,05,17,11,6.40
2006,02,05,17,12,8.10
2006,02,05,17,13,6.40
2006,02,05,17,14,3.20
2006,02,05,17,15,8.10
2006,02,05,17,16,4.80
2006,02,05,17,17,6.40
2006,02,05,17,18,8.10
2006,02,05,17,19,6.40
2006,02,05,17,20,6.40
2006,02,05,17,21,6.40
2006,02,05,17,22,6.40
2006,02,05,17,23,6.40
2006,02,05,17,24,6.40
2006,02,05,17,25,6.40
2006,02,05,17,26,4.80
2006,02,05,17,27,4.80
2006,02,05,17,28,4.80
2006,02,05,17,29,4.80
2006,02,05,17,30,4.80
2006,02,05,17,31,4.80
2006,02,05,17,32,6.40
2006,02,05,17,33,4.80
2006,02,05,17,34,4.80
2006,02,05,17,35,4.80
2006,02,05,17,36,6.40
2006,02,05,17,37,4.80
2006,02,05,17,38,6.40
2006,02,05,17,39,6.40
2006,02,05,17,40,6.40
2006,02,05,17,41,6.40
2006,02,05,17,42,4.80
2006,02,05,17,43,6.40
2006,02,05,17,44,4.80
2006,02,05,17,45,4.80
2006,02,05,17,46,4.80
2006,02,05,17,47,4.80
2006,02,05,17,48,4.80
2006,02,05,17,49,3.20
2006,02,05,17,50,3.20
2006,02,05,17,51,1.60
2006,02,05,17,52,3.20
2006,02,05,17,53,4.80